Location: Beccas
(43.4309°N, 0.1528°E)
Time: 21:48:36
(UTC+00:00)

H-2A R/B - Pass Details

Date: 15 October 2021
Orbit: 577 x 654 km, 98.5° (Epoch: 29 November)

Event Time Altitude Azimuth Distance (km) Brightness Sun altitude
Rises 19:34:37 0° 5° (N) 2,803 5.5 -25.8°
Reaches altitude 10° 19:36:54 10° 356° (N) 1,900 4.7 -26.2°
Maximum altitude 19:40:38 35° 291° (WNW) 952 3.5 -26.9°
Drops below altitude 10° 19:44:22 10° 225° (SW) 1,901 4.9 -27.5°
Sets 19:46:39 0° 217° (SW) 2,805 5.7 -27.9°
